Pueblo, CO

2:09 AM MST on January 23, 2018 (GMT -0700)
Pueblo Memorial

Weather History for KPUB - August, 2014

Change the Weather History Date:

Sunday, August 10, 2014

  Actual Average Record
Temperature  
Mean Temperature 72 °F 74 °F  
Max Temperature 86 °F 90 °F 101 °F (1995)
Min Temperature 57 °F 59 °F 51 °F (1892)
Degree Days  
Heating Degree Days 0 0  
Month to date heating degree days 0 0  
Since 1 June heating degree days 4 26  
Since 1 July heating degree days 1 1  
Cooling Degree Days 7 9  
Month to date cooling degree days 83 99  
Year to date cooling degree days 696 644  
Since 1 June cooling degree days 644 610  
Growing Degree Days 22 (Base 50)    
Moisture  
Dew Point 55 °F    
Average Humidity 61    
Maximum Humidity 90    
Minimum Humidity 32    
Precipitation  
Precipitation 0.44 in 0.09 in 1.59 in (2015)
Month to date precipitation 1.05 0.83  
Year to date precipitation 9.39 8.74  
Snow  
Snow 0.00 in 0.00 in 0.00 in (2009)
Month to date snowfall 0.0 0.0  
Since 1 June snowfall T 0.0  
Since 1 July snowfall 0.0 0.0  
Snow Depth 0.00 in    
Sea Level Pressure  
Sea Level Pressure 30.18 in    
Wind  
Wind Speed 8 mph (North)    
Max Wind Speed 26 mph    
Max Gust Speed 32 mph    
Visibility 10 miles    
Events Rain , Thunderstorm    
T = Trace of Precipitation, MM = Missing Value Source: NWS Daily Summary

Daily Weather History Graph

Daily Weather History Graph

Search for Another Location

Airport or City:

Trip Planner

Search our weather history database for the weather conditions in past years. The results will help you decide how hot, cold, wet, or windy it might be!

Date:

Astronomy

Aug. 10, 2014 Rise Set
Actual Time 6:08 AM MDT 7:57 PM MDT
Civil Twilight 5:39 AM MDT 8:26 PM MDT
Nautical Twilight 5:04 AM MDT 9:00 PM MDT
Astronomical Twilight 4:27 AM MDT 9:37 PM MDT
Moon 7:47 PM MDT (8/10) 6:02 AM MDT (8/10)
Length of Visible Light 14h 46m
Length of Day
13h 49m
Full, 100% of the Moon is Illuminated
Aug 10
Full
Aug 10
Full
Aug 17
Last Quarter
Aug 25
New
Sep 2
First Quarter

Hourly Weather History & Observations

Time (MDT) Temp. Heat Index Dew Point Humidity Pressure Visibility Wind Dir Wind Speed Gust Speed Precip Events Conditions
12:53 AM 66.9 °F - 53.1 °F 61% 30.06 in 10.0 mi East 5.8 mph - N/A   Mostly Cloudy
1:53 AM 64.0 °F - 55.0 °F 73% 30.05 in 10.0 mi NNE 4.6 mph - N/A   Scattered Clouds
2:53 AM 64.4 °F - 53.6 °F 68% 30.24 in 10.0 mi North 8.1 mph - N/A   Partly Cloudy
3:53 AM 63.0 °F - 52.0 °F 67% 30.05 in 10.0 mi NNW 6.9 mph - N/A   Clear
4:53 AM 62.1 °F - 53.1 °F 72% 30.07 in 10.0 mi SW 4.6 mph - N/A   Clear
5:53 AM 57.2 °F - 53.6 °F 88% 30.26 in 10.0 mi Calm Calm - N/A   Clear
6:53 AM 62.1 °F - 51.1 °F 67% 30.11 in 10.0 mi West 10.4 mph - N/A   Clear
7:53 AM 66.2 °F - 51.8 °F 60% 30.29 in 10.0 mi West 9.2 mph - N/A   Clear
8:53 AM 73.0 °F - 51.1 °F 46% 30.13 in 10.0 mi NW 5.8 mph - N/A   Clear
9:53 AM 75.9 °F - 51.1 °F 42% 30.12 in 10.0 mi Variable 4.6 mph - N/A   Clear
10:53 AM 79.0 °F - 50.0 °F 36% 30.12 in 10.0 mi North - - N/A   Clear
11:53 AM 81.0 °F - 50.0 °F 34% 30.12 in 10.0 mi ENE 6.9 mph - N/A   Clear
12:53 PM 82.0 °F - 52.0 °F 35% 30.10 in 10.0 mi SSE 9.2 mph - N/A   Clear
1:53 PM 84.9 °F - 51.1 °F 31% 30.07 in 10.0 mi ESE 11.5 mph - N/A   Partly Cloudy
2:40 PM 82.9 °F - 51.1 °F 33% 30.25 in 10.0 mi NE 13.8 mph 19.6 mph N/A Thunderstorm Overcast
2:53 PM 81.0 °F 80.4 °F 53.1 °F 38% 30.08 in 10.0 mi ENE 11.5 mph - N/A Thunderstorm Overcast
3:16 PM 72.0 °F - 57.9 °F 61% 30.27 in 2.5 mi ESE 18.4 mph 21.9 mph 0.32 in Rain , Thunderstorm Rain
3:24 PM 72.0 °F - 57.9 °F 61% 30.27 in 10.0 mi SE 12.7 mph - 0.40 in Rain , Thunderstorm Light Rain
3:46 PM 72.0 °F - 59.0 °F 64% 30.26 in 10.0 mi ESE 4.6 mph - 0.41 in Rain , Thunderstorm Light Thunderstorms and Rain
3:53 PM 70.0 °F - 62.1 °F 76% 30.12 in 10.0 mi NW 12.7 mph - 0.41 in Rain , Thunderstorm Light Thunderstorms and Rain
4:34 PM 69.1 °F - 61.0 °F 75% 30.28 in 10.0 mi North 15.0 mph - 0.02 in Rain , Thunderstorm Light Rain
4:48 PM 68.0 °F - 60.8 °F 78% 30.27 in 10.0 mi North 15.0 mph - 0.02 in Rain , Thunderstorm Light Thunderstorms and Rain
4:53 PM 68.0 °F - 60.1 °F 76% 30.14 in 10.0 mi North 16.1 mph - 0.02 in Thunderstorm Thunderstorm
5:53 PM 68.0 °F - 57.0 °F 68% 30.16 in 10.0 mi NNW 19.6 mph - N/A Thunderstorm Overcast
6:11 PM 66.9 °F - 55.0 °F 66% 30.29 in 10.0 mi North 18.4 mph 27.6 mph N/A   Overcast
6:27 PM 66.9 °F - 55.0 °F 66% 30.30 in 10.0 mi NNW 18.4 mph - 0.00 in Rain , Thunderstorm Light Rain
6:53 PM 66.0 °F - 54.0 °F 65% 30.19 in 10.0 mi NW 11.5 mph - 0.00 in Rain Light Rain
7:09 PM 66.0 °F - 55.0 °F 68% 30.33 in 10.0 mi West 15.0 mph 21.9 mph 0.00 in   Overcast
7:53 PM 62.1 °F - 57.0 °F 84% 30.19 in 10.0 mi SSW 11.5 mph - 0.01 in Rain Light Rain
8:53 PM 64.0 °F - 55.0 °F 73% 30.17 in 10.0 mi WNW 10.4 mph - 0.00 in   Partly Cloudy
9:53 PM 61.0 °F - 57.9 °F 90% 30.19 in 10.0 mi ESE 6.9 mph - N/A   Clear
10:53 PM 60.1 °F - 57.9 °F 93% 30.19 in 10.0 mi Calm Calm - N/A   Clear
11:53 PM 60.1 °F - 57.0 °F 90% 30.20 in 10.0 mi Calm Calm - N/A   Clear